Weather in Sharlik

Russia / Orenburg Oblast     52°55′33″N   54°44′28″E
temp.,
°C
wind,
m/s
gust,
m/s
humid.,
%
clouds,
%
prec.,
mm/h
press.,
hPa
HPBL,
m
3 march, wed
wed323:00−5sw81594100 1.9 1007600
02:00−4sw81495100 1.0 1004562
05:00−4sw61196100 1.8 1004443
08:00−4sw3697100 0.8 1002199
11:00−2sw4597100 1.7 1002324
14:00−1wsw4595100 0.6 1002468
17:00−1wnw4692100 0.6 1002386
20:00−5w449599 0.0 100245
4 march, thu
thu423:00−8w5109690 0.1 1004140
02:00−10wnw599691 0.1 1004154
05:00−9wnw699586 0.2 1007198
08:00−13w459875 0.0 100851
11:00−11wsw599579 0.1 1009304
14:00−8sw7128996 0.0 1007460
17:00−6sw9159198 0.1 1006666
20:00−6sw91694100 0.4 1004740
5 march, fri
fri523:00−2sw101895100 1.3 1002693
02:000wsw101691100 0.6 1003824
05:00−2wsw91594100 0.9 1004610
08:00−2sw91494100 0.9 1005641
11:00−3sw81496100 1.9 1005712
14:00−1sw111696100 1.8 10031002
17:000sw101698100 3.1 1003937
20:000wsw111798100 2.8 1002703
6 march, sat
sat623:00−1wnw91393100 4.2 1006594
02:00−9nw459494 0.1 101072
05:00−14n238951 0.1 101420
08:00−16ene127969 0.0 101520
11:00−12ese127379 0.0 101685
14:00−9se3468100 0.0 1014237
17:00−7se4680100 0.0 1011304
20:00−7ene3596100 1.3 1008136
7 march, sun
sun723:00−7n3595100 2.3 1006129
02:00−11nw5695100 0.1 100785
05:00−14wnw579799 0.1 1009104
08:00−18wnw5610099 0.0 101180
11:00−16wnw699699 0.1 1013266
14:00−14wnw689090 0.0 1014395
17:00−15w469156 0.0 1014299
20:00−19sw231000 0.0 101520